Location: Alulod
(14.2076°N, 120.8898°E)
Time: 03:26:51
(UTC+00:00)

SL-24 R/B - Pass Details

Date: 13 December 2025
Orbit: 501 x 978 km, 97.4° (Epoch: 15 January)

Event Time Altitude Azimuth Distance (km) Brightness Sun altitude
Rises 20:42:58 0° 13° (NNE) 2,996 7.5 -20.9°
Reaches altitude 10° 20:45:19 10° 14° (NNE) 2,009 6.6 -20.4°
Maximum altitude 20:49:38 77° 101° (E) 595 4.0 -19.4°
Drops below altitude 10° 20:53:28 10° 187° (S) 1,793 6.6 -18.5°
Sets 20:55:29 0° 188° (S) 2,644 7.5 -18.1°
